Date,TemperatureHighF,TemperatureAvgF,TemperatureLowF,DewpointHighF,DewpointAvgF,DewpointLowF,HumidityHigh,HumidityAvg,HumidityLow,PressureMaxIn,PressureMinIn,WindSpeedMaxMPH,WindSpeedAvgMPH,GustSpeedMaxMPH,PrecipitationSumIn
2013-4-1,51,40,29,34,30,24,83,69,50,30.10,29.96,7,3,11,0.01
2013-4-2,39,38,36,37,34,31,94,86,76,30.15,30.06,9,4,11,0.18
2013-4-3,62,46,36,44,36,32,96,72,37,30.17,30.00,7,2,9,0.01
2013-4-4,69,53,36,40,34,30,84,52,25,30.08,29.84,6,2,12,0.00
2013-4-5,73,55,41,40,33,25,78,48,18,29.84,29.51,22,6,29,0.00
2013-4-6,62,52,35,34,29,22,62,41,26,29.79,29.68,9,3,13,0.00
2013-4-7,64,51,36,40,33,25,86,53,23,29.73,29.53,15,4,18,0.00
2013-4-8,63,44,26,38,32,23,90,66,32,29.76,29.29,25,8,32,0.00
2013-4-9,27,20,13,24,15,8,89,80,64,30.39,29.75,17,11,24,0.00
2013-4-10,29,18,7,21,12,4,89,78,61,30.41,30.13,5,2,9,0.00
2013-4-11,56,36,17,37,27,14,91,73,36,30.13,29.88,22,3,29,0.00
2013-4-12,53,42,31,35,32,28,91,69,45,29.97,29.83,19,4,25,0.00
2013-4-13,63,47,28,40,32,24,95,62,23,29.93,29.31,19,5,28,0.02
2013-4-14,48,42,36,38,15,1,95,36,16,29.69,29.41,24,10,27,0.18
2013-4-15,38,27,23,28,24,19,94,87,49,30.15,29.68,8,1,14,0.00
2013-4-16,31,26,21,29,24,20,95,93,88,30.16,30.02,0,0,5,0.00
2013-4-17,30,26,18,28,24,14,96,92,85,30.31,30.06,15,3,18,0.00
2013-4-18,35,24,8,24,16,6,93,73,53,30.34,30.27,7,2,12,0.08
2013-4-19,53,36,16,31,22,7,81,58,34,30.30,30.00,7,2,11,0.01
2013-4-20,54,44,31,39,32,26,86,65,45,30.01,29.87,6,2,8,0.00
2013-4-21,59,47,32,40,33,28,91,62,31,30.03,29.89,7,2,10,0.00
2013-4-22,47,33,23,39,29,21,94,85,61,30.37,29.81,19,7,24,0.00
2013-4-23,34,26,18,31,21,15,96,80,52,30.43,30.30,8,3,11,0.18
2013-4-24,54,38,22,32,23,15,78,57,31,30.32,30.20,5,2,7,0.00
2013-4-25,60,45,28,35,26,18,80,51,25,30.20,29.88,4,2,7,0.00
2013-4-26,68,54,38,32,26,17,70,38,16,30.10,29.96,9,3,14,0.00
2013-4-27,75,58,36,37,26,18,65,33,13,30.09,29.84,7,2,9,0.00
2013-4-28,79,64,43,41,30,21,57,30,13,29.85,29.58,16,4,20,0.00
2013-4-29,79,65,47,43,33,20,70,35,12,29.70,29.32,17,4,23,0.00
2013-4-30,63,49,32,42,36,28,95,64,27,29.93,29.36,17,4,25,0.29